RYR19WE EGBB-LPPR

Flight info

Callsign RYR19WE
Flight time 2h 5m
Altitude 29000
Route ADMEX Y321 CPT/N0361F230 Y321 PEPIS/N0445F380 Q41 SAM/N0442F370 M195 LORKU DCT LOTEE DCT ELTEP/N0351F230 T328 ASPOR
Aircraft B738/M-SDE3FGILRWY/SB1

Departure

Time 2026-05-04 21:07
Airport Birmingham Airport (EGBB)

Arrival

Time 2026-05-04 23:12
Airport Francisco de Sá Carneiro Airport (LPPR)
Time Latitude Longitude Altitude Speed Heading
2026-05-04 20:29 52.45206 -1.73698 322 ft 0 kts 326°
2026-05-04 20:57 52.45191 -1.73681 320 ft 3 kts 326°
2026-05-04 20:57 52.45176 -1.73664 321 ft 3 kts 322°
2026-05-04 20:57 52.45161 -1.73640 320 ft 3 kts 297°
2026-05-04 20:58 52.45155 -1.73608 319 ft 3 kts 264°
2026-05-04 20:58 52.45161 -1.73575 320 ft 3 kts 238°
2026-05-04 20:58 52.45158 -1.73582 320 ft 3 kts 236°
2026-05-04 20:58 52.45147 -1.73609 322 ft 1 kts 236°
2026-05-04 20:59 52.45146 -1.73609 322 ft 0 kts 236°
2026-05-04 21:01 52.45144 -1.73614 322 ft 1 kts 236°
2026-05-04 21:01 52.45133 -1.73642 321 ft 5 kts 236°
2026-05-04 21:02 52.45108 -1.73702 322 ft 8 kts 236°
2026-05-04 21:02 52.45057 -1.73744 322 ft 5 kts 187°
2026-05-04 21:02 52.45014 -1.73721 321 ft 8 kts 147°
2026-05-04 21:02 52.44977 -1.73680 322 ft 11 kts 146°
2026-05-04 21:03 52.44899 -1.73650 322 ft 12 kts 194°
2026-05-04 21:03 52.44816 -1.73689 322 ft 12 kts 197°
2026-05-04 21:03 52.44739 -1.73728 321 ft 11 kts 192°
2026-05-04 21:03 52.44674 -1.73687 322 ft 10 kts 146°
2026-05-04 21:04 52.44612 -1.73618 322 ft 11 kts 146°
2026-05-04 21:04 52.44541 -1.73540 322 ft 13 kts 146°
2026-05-04 21:04 52.44465 -1.73455 323 ft 11 kts 146°
2026-05-04 21:04 52.44405 -1.73406 323 ft 9 kts 177°
2026-05-04 21:05 52.44363 -1.73452 322 ft 7 kts 233°
2026-05-04 21:05 52.44335 -1.73517 324 ft 7 kts 235°
2026-05-04 21:05 52.44317 -1.73590 321 ft 8 kts 273°
2026-05-04 21:05 52.44342 -1.73642 323 ft 0 kts 325°
2026-05-04 21:06 52.44343 -1.73643 323 ft 1 kts 325°
2026-05-04 21:06 52.44397 -1.73704 323 ft 32 kts 326°
2026-05-04 21:06 52.44779 -1.74128 321 ft 100 kts 326°
2026-05-04 21:07 52.45518 -1.74948 320 ft 155 kts 325°
2026-05-04 21:07 52.46443 -1.76020 794 ft 165 kts 325°
2026-05-04 21:07 52.47363 -1.77119 1570 ft 161 kts 325°
2026-05-04 21:07 52.48281 -1.78181 2249 ft 163 kts 327°
2026-05-04 21:08 52.49209 -1.79193 2787 ft 162 kts 332°
2026-05-04 21:08 52.50241 -1.79778 3155 ft 161 kts 352°
2026-05-04 21:08 52.51352 -1.79716 3522 ft 165 kts 19°
2026-05-04 21:08 52.52176 -1.78418 3834 ft 171 kts 68°
2026-05-04 21:09 52.52199 -1.76492 4243 ft 178 kts 107°
2026-05-04 21:09 52.51523 -1.74737 4581 ft 186 kts 126°
2026-05-04 21:09 52.50686 -1.73100 5006 ft 188 kts 127°
2026-05-04 21:09 52.49834 -1.71446 5431 ft 190 kts 130°
2026-05-04 21:10 52.48984 -1.69898 5908 ft 188 kts 132°
2026-05-04 21:10 52.48103 -1.68303 6357 ft 190 kts 132°
2026-05-04 21:10 52.47192 -1.66650 6679 ft 206 kts 133°
2026-05-04 21:10 52.46226 -1.64887 6860 ft 224 kts 132°
2026-05-04 21:11 52.45169 -1.62952 7014 ft 243 kts 132°
2026-05-04 21:11 52.44006 -1.60817 7217 ft 259 kts 132°
2026-05-04 21:11 52.42767 -1.58537 7450 ft 279 kts 132°
2026-05-04 21:11 52.41458 -1.56126 8011 ft 285 kts 132°
2026-05-04 21:12 52.40138 -1.53693 8750 ft 286 kts 132°
2026-05-04 21:12 52.38809 -1.51248 9514 ft 289 kts 133°
2026-05-04 21:12 52.37488 -1.48821 10268 ft 291 kts 133°
2026-05-04 21:12 52.35943 -1.46557 10528 ft 310 kts 151°
2026-05-04 21:13 52.33863 -1.45327 10742 ft 328 kts 170°
2026-05-04 21:13 52.31569 -1.44688 11213 ft 339 kts 172°
2026-05-04 21:13 52.29220 -1.44104 11890 ft 343 kts 172°
2026-05-04 21:13 52.26899 -1.43522 12619 ft 346 kts 172°
2026-05-04 21:14 52.24503 -1.42898 13314 ft 352 kts 172°
2026-05-04 21:14 52.22070 -1.42243 13931 ft 356 kts 171°
2026-05-04 21:14 52.19628 -1.41570 14024 ft 356 kts 171°
2026-05-04 21:14 52.17183 -1.40886 14115 ft 361 kts 171°
2026-05-04 21:15 52.14698 -1.40187 14796 ft 362 kts 171°
2026-05-04 21:15 52.12226 -1.39489 15706 ft 359 kts 171°
2026-05-04 21:15 52.09758 -1.38794 16494 ft 361 kts 171°
2026-05-04 21:15 52.07274 -1.38095 17204 ft 364 kts 171°
2026-05-04 21:16 52.04762 -1.37389 17922 ft 368 kts 171°
2026-05-04 21:16 52.02236 -1.36679 18605 ft 370 kts 171°
2026-05-04 21:16 51.99688 -1.35965 19228 ft 373 kts 171°
2026-05-04 21:16 51.97123 -1.35247 19847 ft 376 kts 171°
2026-05-04 21:17 51.94535 -1.34523 20459 ft 378 kts 171°
2026-05-04 21:17 51.91933 -1.33797 21055 ft 381 kts 171°
2026-05-04 21:17 51.89309 -1.33066 21666 ft 384 kts 171°
2026-05-04 21:17 51.86668 -1.32330 22239 ft 387 kts 171°
2026-05-04 21:18 51.83998 -1.31587 22819 ft 390 kts 171°
2026-05-04 21:18 51.81319 -1.30843 23387 ft 393 kts 171°
2026-05-04 21:18 51.78614 -1.30092 23911 ft 395 kts 170°
2026-05-04 21:18 51.75906 -1.29341 24452 ft 395 kts 171°
2026-05-04 21:19 51.73193 -1.28590 24950 ft 396 kts 171°
2026-05-04 21:19 51.70472 -1.27836 25413 ft 398 kts 171°
2026-05-04 21:19 51.67732 -1.27079 25875 ft 400 kts 171°
2026-05-04 21:19 51.64984 -1.26321 26334 ft 402 kts 171°
2026-05-04 21:20 51.62255 -1.25568 26786 ft 404 kts 171°
2026-05-04 21:20 51.59499 -1.24809 27230 ft 405 kts 171°
2026-05-04 21:20 51.56715 -1.24043 27663 ft 407 kts 171°
2026-05-04 21:20 51.53921 -1.23276 28107 ft 408 kts 171°
2026-05-04 21:21 51.51114 -1.22507 28540 ft 410 kts 172°
2026-05-04 21:21 51.48281 -1.21986 28943 ft 410 kts 179°
2026-05-04 21:21 51.45423 -1.22146 29337 ft 412 kts 184°
2026-05-04 21:21 51.42562 -1.22428 29731 ft 413 kts 184°
2026-05-04 21:22 51.39687 -1.22705 30106 ft 415 kts 184°
2026-05-04 21:22 51.36799 -1.22966 30388 ft 417 kts 184°
2026-05-04 21:22 51.33891 -1.23214 30667 ft 419 kts 183°
2026-05-04 21:22 51.30981 -1.23453 31039 ft 418 kts 183°
2026-05-04 21:23 51.28083 -1.23687 31482 ft 416 kts 183°
2026-05-04 21:23 51.25187 -1.23921 31795 ft 418 kts 183°
2026-05-04 21:23 51.22275 -1.24156 32073 ft 419 kts 183°
2026-05-04 21:23 51.19368 -1.24525 32393 ft 420 kts 189°
2026-05-04 21:24 51.16523 -1.25552 32748 ft 419 kts 195°
2026-05-04 21:24 51.13712 -1.26786 33089 ft 419 kts 195°
2026-05-04 21:24 51.10895 -1.28022 33380 ft 420 kts 195°
2026-05-04 21:24 51.08071 -1.29239 33690 ft 421 kts 195°
2026-05-04 21:25 51.05240 -1.30439 34029 ft 421 kts 195°
2026-05-04 21:25 51.02409 -1.31628 34285 ft 421 kts 195°
2026-05-04 21:25 50.99566 -1.32816 34504 ft 423 kts 195°
2026-05-04 21:25 50.96737 -1.34101 34736 ft 424 kts 200°
2026-05-04 21:26 50.94042 -1.35982 34969 ft 424 kts 208°
2026-05-04 21:26 50.91543 -1.38476 35213 ft 425 kts 213°
2026-05-04 21:26 50.89080 -1.41086 35441 ft 426 kts 213°
2026-05-04 21:26 50.86608 -1.43711 35530 ft 431 kts 213°
2026-05-04 21:27 50.84111 -1.46347 35754 ft 431 kts 213°
2026-05-04 21:27 50.81618 -1.48960 36072 ft 429 kts 212°
2026-05-04 21:27 50.79129 -1.51551 36294 ft 430 kts 212°
2026-05-04 21:27 50.76617 -1.54155 36466 ft 432 kts 212°
2026-05-04 21:28 50.74105 -1.56753 36669 ft 432 kts 212°
2026-05-04 21:28 50.71588 -1.59351 36912 ft 432 kts 212°
2026-05-04 21:28 50.69070 -1.61947 37017 ft 435 kts 212°
2026-05-04 21:28 50.66529 -1.64563 37014 ft 437 kts 212°
2026-05-04 21:29 50.61433 -1.69802 37019 ft 436 kts 212°
2026-05-04 21:29 50.56405 -1.74961 37014 ft 428 kts 212°
2026-05-04 21:30 50.51444 -1.80033 37028 ft 428 kts 212°
2026-05-04 21:30 50.46452 -1.85120 37018 ft 428 kts 212°
2026-05-04 21:31 50.38837 -1.92859 37033 ft 438 kts 212°
2026-05-04 21:32 50.33763 -1.98003 37017 ft 437 kts 212°
2026-05-04 21:32 50.28659 -2.03164 37012 ft 436 kts 212°
2026-05-04 21:33 50.23560 -2.08297 37012 ft 435 kts 211°
2026-05-04 21:33 50.18429 -2.13310 37016 ft 434 kts 211°
2026-05-04 21:34 50.13305 -2.18269 37017 ft 433 kts 211°
2026-05-04 21:34 50.08189 -2.23227 37015 ft 432 kts 211°
2026-05-04 21:35 50.03091 -2.28165 37021 ft 431 kts 211°
2026-05-04 21:35 49.97989 -2.33096 37019 ft 432 kts 211°
2026-05-04 21:36 49.92854 -2.37945 37019 ft 432 kts 207°
2026-05-04 21:36 49.87441 -2.42003 37026 ft 433 kts 204°
2026-05-04 21:37 49.81952 -2.45891 37018 ft 434 kts 204°
2026-05-04 21:37 49.76458 -2.49817 37018 ft 436 kts 204°
2026-05-04 21:38 49.70958 -2.53792 37021 ft 437 kts 204°
2026-05-04 21:38 49.65459 -2.57779 37021 ft 437 kts 204°
2026-05-04 21:39 49.60038 -2.61704 37020 ft 437 kts 204°
2026-05-04 21:39 49.54535 -2.65678 37020 ft 437 kts 204°
2026-05-04 21:40 49.49036 -2.69637 37025 ft 436 kts 204°
2026-05-04 21:40 49.43543 -2.73582 37025 ft 435 kts 204°
2026-05-04 21:41 49.38052 -2.77516 37019 ft 435 kts 204°
2026-05-04 21:41 49.32569 -2.81435 37015 ft 435 kts 204°
2026-05-04 21:42 49.27089 -2.85342 37018 ft 434 kts 204°
2026-05-04 21:42 49.21604 -2.89242 37021 ft 434 kts 204°
2026-05-04 21:43 49.16121 -2.93132 37005 ft 434 kts 204°
2026-05-04 21:43 49.10673 -2.96987 37017 ft 435 kts 204°
2026-05-04 21:44 49.05186 -3.00861 37022 ft 435 kts 204°
2026-05-04 21:44 48.99692 -3.04730 37008 ft 435 kts 204°
2026-05-04 21:45 48.94195 -3.08591 37016 ft 436 kts 204°
2026-05-04 21:45 48.88682 -3.12455 37026 ft 436 kts 204°
2026-05-04 21:46 48.83159 -3.16316 37023 ft 437 kts 204°
2026-05-04 21:46 48.77624 -3.20176 37020 ft 438 kts 204°
2026-05-04 21:47 48.72074 -3.24037 37016 ft 439 kts 204°
2026-05-04 21:47 48.66519 -3.27892 37020 ft 440 kts 204°
2026-05-04 21:48 48.60952 -3.31746 37018 ft 440 kts 204°
2026-05-04 21:48 48.55381 -3.35593 37014 ft 440 kts 204°
2026-05-04 21:49 48.49806 -3.39434 37003 ft 440 kts 204°
2026-05-04 21:49 48.44236 -3.43262 37004 ft 440 kts 204°
2026-05-04 21:50 48.39611 -3.46434 37008 ft 440 kts 203°
2026-05-04 21:50 48.34040 -3.50246 37007 ft 440 kts 204°
2026-05-04 21:51 48.28471 -3.54047 37005 ft 440 kts 203°
2026-05-04 21:51 48.22900 -3.57840 37005 ft 440 kts 203°
2026-05-04 21:52 48.17330 -3.61624 37003 ft 440 kts 203°
2026-05-04 21:52 48.11757 -3.65401 37003 ft 440 kts 203°
2026-05-04 21:53 48.06182 -3.69170 36996 ft 439 kts 203°
2026-05-04 21:53 48.00613 -3.72926 36999 ft 439 kts 203°
2026-05-04 21:54 47.95041 -3.76675 36996 ft 439 kts 203°
2026-05-04 21:54 47.89481 -3.80407 36998 ft 438 kts 203°
2026-05-04 21:55 47.83916 -3.84135 36996 ft 439 kts 203°
2026-05-04 21:55 47.78347 -3.87855 37005 ft 438 kts 203°
2026-05-04 21:56 47.72780 -3.91566 37006 ft 438 kts 203°
2026-05-04 21:56 47.67215 -3.95266 37002 ft 438 kts 203°
2026-05-04 21:57 47.61649 -3.98958 37003 ft 438 kts 203°
2026-05-04 21:57 47.56083 -4.02642 37006 ft 438 kts 203°
2026-05-04 21:58 47.50519 -4.06316 37011 ft 438 kts 203°
2026-05-04 21:58 47.44953 -4.09983 37007 ft 438 kts 203°
2026-05-04 21:59 47.39388 -4.13640 37005 ft 438 kts 203°
2026-05-04 21:59 47.33824 -4.17289 37009 ft 438 kts 203°
2026-05-04 22:00 47.28258 -4.20929 37010 ft 438 kts 203°
2026-05-04 22:00 47.22686 -4.24566 37012 ft 438 kts 203°
2026-05-04 22:01 47.17107 -4.28199 37011 ft 439 kts 203°
2026-05-04 22:01 47.11520 -4.31829 37010 ft 439 kts 203°
2026-05-04 22:02 47.05921 -4.35457 37012 ft 440 kts 203°
2026-05-04 22:02 47.00318 -4.39081 37006 ft 440 kts 203°
2026-05-04 22:03 46.94711 -4.42699 37010 ft 440 kts 203°
2026-05-04 22:03 46.89103 -4.46309 37011 ft 440 kts 203°
2026-05-04 22:04 46.83491 -4.49913 37014 ft 440 kts 203°
2026-05-04 22:04 46.77888 -4.53503 37014 ft 440 kts 203°
2026-05-04 22:05 46.72286 -4.57085 37013 ft 439 kts 203°
2026-05-04 22:05 46.66694 -4.60652 37014 ft 439 kts 203°
2026-05-04 22:06 46.61103 -4.64210 37012 ft 438 kts 203°
2026-05-04 22:06 46.55558 -4.67731 37013 ft 437 kts 203°
2026-05-04 22:07 46.49948 -4.71286 37016 ft 437 kts 203°
2026-05-04 22:07 46.44374 -4.74809 37023 ft 437 kts 203°
2026-05-04 22:08 46.38841 -4.78299 37017 ft 436 kts 203°
2026-05-04 22:08 46.33275 -4.81801 37021 ft 436 kts 203°
2026-05-04 22:09 46.27706 -4.85299 37020 ft 437 kts 203°
2026-05-04 22:09 46.22130 -4.88792 37022 ft 437 kts 203°
2026-05-04 22:10 46.16549 -4.92281 37020 ft 438 kts 203°
2026-05-04 22:10 46.10955 -4.95770 37019 ft 438 kts 203°
2026-05-04 22:11 46.05356 -4.99254 37018 ft 439 kts 203°
2026-05-04 22:11 45.99750 -5.02736 37020 ft 439 kts 203°
2026-05-04 22:12 45.94139 -5.06212 37016 ft 439 kts 203°
2026-05-04 22:12 45.88526 -5.09683 37019 ft 439 kts 203°
2026-05-04 22:13 45.82909 -5.13148 37022 ft 439 kts 204°
2026-05-04 22:13 45.77291 -5.16606 37018 ft 439 kts 203°
2026-05-04 22:14 45.71673 -5.20056 37022 ft 440 kts 203°
2026-05-04 22:14 45.66048 -5.23503 37022 ft 440 kts 203°
2026-05-04 22:15 45.60426 -5.26941 37024 ft 439 kts 204°
2026-05-04 22:15 45.54808 -5.30369 37020 ft 439 kts 204°
2026-05-04 22:16 45.49192 -5.33788 37020 ft 439 kts 204°
2026-05-04 22:16 45.43580 -5.37198 37022 ft 438 kts 204°
2026-05-04 22:17 45.37973 -5.40596 37020 ft 437 kts 204°
2026-05-04 22:17 45.32379 -5.43980 37019 ft 437 kts 204°
2026-05-04 22:18 45.26780 -5.47360 37022 ft 437 kts 204°
2026-05-04 22:18 45.21191 -5.50725 37020 ft 436 kts 204°
2026-05-04 22:19 45.15599 -5.54086 37022 ft 436 kts 204°
2026-05-04 22:19 45.10045 -5.57417 37023 ft 437 kts 204°
2026-05-04 22:20 45.04451 -5.60765 37017 ft 437 kts 204°
2026-05-04 22:20 44.98846 -5.64112 37023 ft 437 kts 204°
2026-05-04 22:21 44.93241 -5.67452 37023 ft 437 kts 204°
2026-05-04 22:21 44.87632 -5.70788 37021 ft 438 kts 204°
2026-05-04 22:22 44.82017 -5.74120 37024 ft 438 kts 204°
2026-05-04 22:22 44.76405 -5.77444 37024 ft 438 kts 204°
2026-05-04 22:23 44.70804 -5.80756 37023 ft 438 kts 204°
2026-05-04 22:23 44.65241 -5.84245 37015 ft 437 kts 211°
2026-05-04 22:24 44.60260 -5.89079 37027 ft 436 kts 217°
2026-05-04 22:24 44.55341 -5.94046 37027 ft 436 kts 217°
2026-05-04 22:25 44.50403 -5.98980 37027 ft 436 kts 216°
2026-05-04 22:25 44.45452 -6.03881 37026 ft 436 kts 216°
2026-05-04 22:26 44.40499 -6.08759 37032 ft 435 kts 216°
2026-05-04 22:26 44.35541 -6.13630 37030 ft 435 kts 216°
2026-05-04 22:27 44.30585 -6.18491 37034 ft 435 kts 216°
2026-05-04 22:27 44.25625 -6.23346 37033 ft 435 kts 216°
2026-05-04 22:28 44.20701 -6.28156 37040 ft 435 kts 216°
2026-05-04 22:28 44.16050 -6.32689 37038 ft 435 kts 216°
2026-05-04 22:29 44.11087 -6.37516 37039 ft 435 kts 216°
2026-05-04 22:29 44.06127 -6.42332 37041 ft 435 kts 216°
2026-05-04 22:30 44.01163 -6.47140 37038 ft 435 kts 217°
2026-05-04 22:30 43.96200 -6.51939 37042 ft 435 kts 217°
2026-05-04 22:31 43.91236 -6.56728 37046 ft 435 kts 217°
2026-05-04 22:31 43.86269 -6.61509 37047 ft 435 kts 216°
2026-05-04 22:32 43.81287 -6.66296 37043 ft 435 kts 217°
2026-05-04 22:32 43.76335 -6.71044 37048 ft 435 kts 217°
2026-05-04 22:33 43.71358 -6.75806 37054 ft 435 kts 217°
2026-05-04 22:33 43.66378 -6.80561 37053 ft 435 kts 217°
2026-05-04 22:34 43.61395 -6.85309 37047 ft 435 kts 217°
2026-05-04 22:34 43.56412 -6.90048 37059 ft 435 kts 217°
2026-05-04 22:35 43.51460 -6.94747 37070 ft 435 kts 217°
2026-05-04 22:35 43.46469 -6.99475 37063 ft 436 kts 217°
2026-05-04 22:36 43.41472 -7.04197 37059 ft 436 kts 217°
2026-05-04 22:36 43.36476 -7.08909 37069 ft 436 kts 217°
2026-05-04 22:37 43.32318 -7.12823 37081 ft 436 kts 217°
2026-05-04 22:37 43.27286 -7.17552 37090 ft 436 kts 217°
2026-05-04 22:38 43.22313 -7.22216 37071 ft 436 kts 217°
2026-05-04 22:38 43.17314 -7.26894 37090 ft 435 kts 217°
2026-05-04 22:39 43.12316 -7.31563 37093 ft 434 kts 217°
2026-05-04 22:39 43.07325 -7.36215 37062 ft 434 kts 217°
2026-05-04 22:39 43.04823 -7.38545 36735 ft 435 kts 217°
2026-05-04 22:40 43.02335 -7.40857 36411 ft 429 kts 217°
2026-05-04 22:40 42.99888 -7.43128 36033 ft 425 kts 217°
2026-05-04 22:40 42.97450 -7.45389 35646 ft 421 kts 217°
2026-05-04 22:40 42.95036 -7.47627 35264 ft 418 kts 217°
2026-05-04 22:41 42.92656 -7.49831 34893 ft 415 kts 217°
2026-05-04 22:41 42.90259 -7.52051 34506 ft 412 kts 217°
2026-05-04 22:41 42.87889 -7.54242 34074 ft 411 kts 217°
2026-05-04 22:41 42.85532 -7.56419 33657 ft 408 kts 218°
2026-05-04 22:42 42.83194 -7.58577 33232 ft 405 kts 218°
2026-05-04 22:42 42.80868 -7.60720 32829 ft 402 kts 218°
2026-05-04 22:42 42.78565 -7.62842 32440 ft 399 kts 218°
2026-05-04 22:42 42.76276 -7.64949 32045 ft 395 kts 218°
2026-05-04 22:43 42.74008 -7.67034 31680 ft 392 kts 219°
2026-05-04 22:43 42.71760 -7.69100 31331 ft 388 kts 219°
2026-05-04 22:43 42.69531 -7.71148 30965 ft 386 kts 219°
2026-05-04 22:43 42.67313 -7.73183 30611 ft 383 kts 219°
2026-05-04 22:44 42.65109 -7.75202 30248 ft 381 kts 219°
2026-05-04 22:44 42.62910 -7.77186 29836 ft 380 kts 216°
2026-05-04 22:44 42.60542 -7.78792 29406 ft 382 kts 206°
2026-05-04 22:44 42.57999 -7.79868 29050 ft 381 kts 200°
2026-05-04 22:45 42.55448 -7.80809 28654 ft 378 kts 200°
2026-05-04 22:45 42.50419 -7.82627 27920 ft 371 kts 200°
2026-05-04 22:45 42.47932 -7.83536 27568 ft 368 kts 200°
2026-05-04 22:46 42.45472 -7.84443 27205 ft 365 kts 200°
2026-05-04 22:46 42.43032 -7.85348 26845 ft 362 kts 200°
2026-05-04 22:46 42.40610 -7.86249 26503 ft 359 kts 200°
2026-05-04 22:46 42.38209 -7.87144 26151 ft 357 kts 200°
2026-05-04 22:47 42.35828 -7.88032 25805 ft 354 kts 200°
2026-05-04 22:47 42.33459 -7.88915 25456 ft 352 kts 200°
2026-05-04 22:47 42.31107 -7.89791 25114 ft 349 kts 200°
2026-05-04 22:47 42.28774 -7.90660 24789 ft 347 kts 200°
2026-05-04 22:48 42.26449 -7.91526 24453 ft 346 kts 200°
2026-05-04 22:48 42.24138 -7.92385 24120 ft 344 kts 200°
2026-05-04 22:48 42.21833 -7.93242 23790 ft 343 kts 200°
2026-05-04 22:48 42.19538 -7.94094 23408 ft 341 kts 200°
2026-05-04 22:49 42.17253 -7.94942 23014 ft 340 kts 200°
2026-05-04 22:49 42.14991 -7.95811 22656 ft 336 kts 202°
2026-05-04 22:49 42.12809 -7.96785 22281 ft 334 kts 204°
2026-05-04 22:49 42.10631 -7.97812 21979 ft 330 kts 205°
2026-05-04 22:50 42.08476 -7.98840 21649 ft 327 kts 205°
2026-05-04 22:50 42.06336 -7.99857 21315 ft 325 kts 204°
2026-05-04 22:50 42.04208 -8.00862 21003 ft 323 kts 204°
2026-05-04 22:50 42.02097 -8.01852 20683 ft 321 kts 204°
2026-05-04 22:51 41.99994 -8.02833 20368 ft 318 kts 204°
2026-05-04 22:51 41.97906 -8.03804 20063 ft 317 kts 204°
2026-05-04 22:51 41.95826 -8.04769 19759 ft 316 kts 204°
2026-05-04 22:51 41.93753 -8.05729 19442 ft 315 kts 204°
2026-05-04 22:52 41.91690 -8.06683 19135 ft 314 kts 204°
2026-05-04 22:52 41.89629 -8.07634 18816 ft 312 kts 204°
2026-05-04 22:52 41.87580 -8.08578 18517 ft 311 kts 204°
2026-05-04 22:52 41.85539 -8.09519 18189 ft 310 kts 204°
2026-05-04 22:53 41.83500 -8.10458 17849 ft 309 kts 203°
2026-05-04 22:53 41.81475 -8.11390 17555 ft 306 kts 204°
2026-05-04 22:53 41.79462 -8.12315 17231 ft 305 kts 204°
2026-05-04 22:53 41.77458 -8.13235 16929 ft 304 kts 204°
2026-05-04 22:54 41.75461 -8.14152 16616 ft 303 kts 204°
2026-05-04 22:54 41.73469 -8.15067 16328 ft 302 kts 203°
2026-05-04 22:54 41.71484 -8.15978 16027 ft 301 kts 203°
2026-05-04 22:54 41.69502 -8.16886 15716 ft 301 kts 203°
2026-05-04 22:55 41.67527 -8.17791 15420 ft 300 kts 203°
2026-05-04 22:55 41.65559 -8.18691 15132 ft 298 kts 203°
2026-05-04 22:55 41.63600 -8.19588 14827 ft 297 kts 203°
2026-05-04 22:55 41.61645 -8.20480 14544 ft 296 kts 203°
2026-05-04 22:56 41.59700 -8.21369 14247 ft 295 kts 203°
2026-05-04 22:56 41.57762 -8.22253 13960 ft 294 kts 203°
2026-05-04 22:56 41.55828 -8.23136 13626 ft 293 kts 203°
2026-05-04 22:56 41.53901 -8.24015 13315 ft 292 kts 203°
2026-05-04 22:57 41.51983 -8.24888 13022 ft 291 kts 203°
2026-05-04 22:57 41.50097 -8.25747 12721 ft 289 kts 203°
2026-05-04 22:57 41.48174 -8.26621 12442 ft 287 kts 203°
2026-05-04 22:57 41.46296 -8.27475 12150 ft 285 kts 203°
2026-05-04 22:58 41.44448 -8.28315 11862 ft 283 kts 203°
2026-05-04 22:58 41.42562 -8.29172 11580 ft 282 kts 203°
2026-05-04 22:58 41.40708 -8.30014 11302 ft 281 kts 203°
2026-05-04 22:58 41.38885 -8.30842 11023 ft 280 kts 203°
2026-05-04 22:59 41.37044 -8.31676 10737 ft 279 kts 203°
2026-05-04 22:59 41.35210 -8.32507 10460 ft 279 kts 203°
2026-05-04 22:59 41.33378 -8.33337 10239 ft 276 kts 202°
2026-05-04 22:59 41.31583 -8.34148 10085 ft 270 kts 203°
2026-05-04 23:00 41.29801 -8.34954 9791 ft 270 kts 202°
2026-05-04 23:00 41.28030 -8.35755 9517 ft 268 kts 202°
2026-05-04 23:00 41.26271 -8.36550 9251 ft 266 kts 202°
2026-05-04 23:00 41.24520 -8.37341 8970 ft 265 kts 202°
2026-05-04 23:01 41.22775 -8.38128 8712 ft 264 kts 202°
2026-05-04 23:01 41.21042 -8.38910 8450 ft 262 kts 202°
2026-05-04 23:01 41.19318 -8.39688 8189 ft 261 kts 202°
2026-05-04 23:01 41.17605 -8.40459 7934 ft 260 kts 202°
2026-05-04 23:02 41.15892 -8.41231 7670 ft 259 kts 202°
2026-05-04 23:02 41.14189 -8.41999 7410 ft 258 kts 202°
2026-05-04 23:02 41.12498 -8.42759 7161 ft 256 kts 202°
2026-05-04 23:02 41.10809 -8.43518 6920 ft 256 kts 202°
2026-05-04 23:03 41.09125 -8.44277 6645 ft 256 kts 202°
2026-05-04 23:03 41.07443 -8.45032 6403 ft 255 kts 202°
2026-05-04 23:03 41.05759 -8.45788 6124 ft 255 kts 202°
2026-05-04 23:03 41.04084 -8.46539 5862 ft 254 kts 202°
2026-05-04 23:04 41.02413 -8.47288 5616 ft 253 kts 202°
2026-05-04 23:04 41.00913 -8.48374 5454 ft 240 kts 230°
2026-05-04 23:04 41.00077 -8.50171 5411 ft 222 kts 252°
2026-05-04 23:04 40.99691 -8.52076 5293 ft 208 kts 262°
2026-05-04 23:05 40.99433 -8.53903 5182 ft 196 kts 263°
2026-05-04 23:05 40.99188 -8.55652 5143 ft 193 kts 263°
2026-05-04 23:05 40.98940 -8.57385 5069 ft 190 kts 263°
2026-05-04 23:05 40.98741 -8.59089 4970 ft 186 kts 274°
2026-05-04 23:06 40.99157 -8.60605 4798 ft 172 kts 310°
2026-05-04 23:06 41.00093 -8.61547 4532 ft 170 kts 338°
2026-05-04 23:06 41.01222 -8.61941 4358 ft 169 kts 346°
2026-05-04 23:06 41.02375 -8.62253 4170 ft 169 kts 347°
2026-05-04 23:07 41.03524 -8.62557 3963 ft 168 kts 347°
2026-05-04 23:07 41.04663 -8.62858 3760 ft 166 kts 347°
2026-05-04 23:07 41.05784 -8.63156 3583 ft 164 kts 347°
2026-05-04 23:07 41.06897 -8.63446 3398 ft 162 kts 347°
2026-05-04 23:08 41.07979 -8.63727 3188 ft 155 kts 348°
2026-05-04 23:08 41.09019 -8.63998 3027 ft 156 kts 348°
2026-05-04 23:08 41.10085 -8.64275 3011 ft 154 kts 348°
2026-05-04 23:08 41.11123 -8.64545 2822 ft 151 kts 348°
2026-05-04 23:09 41.12140 -8.64811 2642 ft 151 kts 348°
2026-05-04 23:09 41.13167 -8.65079 2462 ft 149 kts 348°
2026-05-04 23:09 41.14187 -8.65345 2231 ft 146 kts 348°
2026-05-04 23:09 41.15165 -8.65601 2002 ft 145 kts 348°
2026-05-04 23:10 41.16163 -8.65862 1771 ft 147 kts 348°
2026-05-04 23:10 41.17170 -8.66136 1543 ft 150 kts 348°
2026-05-04 23:10 41.18183 -8.66405 1325 ft 148 kts 348°
2026-05-04 23:10 41.19195 -8.66672 1112 ft 150 kts 349°
2026-05-04 23:11 41.20230 -8.66941 920 ft 153 kts 348°
2026-05-04 23:11 41.21245 -8.67210 710 ft 147 kts 349°
2026-05-04 23:11 41.22248 -8.67465 488 ft 146 kts 350°
2026-05-04 23:11 41.23233 -8.67716 297 ft 141 kts 349°
2026-05-04 23:12 41.24141 -8.67951 218 ft 120 kts 348°
2026-05-04 23:12 41.24842 -8.68134 196 ft 85 kts 349°
2026-05-04 23:12 41.25301 -8.68255 179 ft 50 kts 349°
2026-05-04 23:12 41.25519 -8.68312 174 ft 14 kts 349°
2026-05-04 23:13 41.25578 -8.68299 172 ft 8 kts 35°
2026-05-04 23:13 41.25601 -8.68236 170 ft 6 kts 78°
2026-05-04 23:13 41.25610 -8.68178 169 ft 6 kts 84°
2026-05-04 23:13 41.25600 -8.68123 170 ft 6 kts 122°
2026-05-04 23:14 41.25564 -8.68094 171 ft 7 kts 165°
2026-05-04 23:14 41.25508 -8.68078 173 ft 9 kts 168°
2026-05-04 23:14 41.25434 -8.68059 175 ft 12 kts 169°
2026-05-04 23:14 41.25342 -8.68035 178 ft 15 kts 169°
2026-05-04 23:15 41.25237 -8.68007 182 ft 16 kts 169°
2026-05-04 23:15 41.25133 -8.67980 188 ft 15 kts 168°
2026-05-04 23:15 41.25024 -8.67951 198 ft 18 kts 168°
2026-05-04 23:15 41.24901 -8.67918 206 ft 18 kts 165°
2026-05-04 23:16 41.24791 -8.67846 205 ft 17 kts 154°
2026-05-04 23:16 41.24679 -8.67806 209 ft 17 kts 169°
2026-05-04 23:16 41.24568 -8.67777 215 ft 16 kts 169°
2026-05-04 23:16 41.24461 -8.67749 221 ft 15 kts 169°
2026-05-04 23:17 41.24358 -8.67723 227 ft 15 kts 169°
2026-05-04 23:17 41.24275 -8.67657 232 ft 14 kts 128°
2026-05-04 23:17 41.24219 -8.67555 237 ft 13 kts 129°
2026-05-04 23:17 41.24150 -8.67475 240 ft 13 kts 148°
2026-05-04 23:18 41.24068 -8.67431 241 ft 13 kts 167°
2026-05-04 23:18 41.23984 -8.67429 240 ft 12 kts 205°
2026-05-04 23:18 41.23912 -8.67487 238 ft 12 kts 203°
2026-05-04 23:18 41.23831 -8.67478 238 ft 12 kts 169°
2026-05-04 23:19 41.23754 -8.67448 238 ft 11 kts 144°
2026-05-04 23:19 41.23709 -8.67374 240 ft 7 kts 129°
2026-05-04 23:19 41.23683 -8.67348 241 ft 2 kts 155°
2026-05-04 23:19 41.23674 -8.67337 241 ft 2 kts 122°
2026-05-04 23:20 41.23675 -8.67321 242 ft 2 kts 74°
2026-05-04 23:20 41.23678 -8.67305 243 ft 2 kts 76°
2026-05-04 23:20 41.23681 -8.67291 243 ft 2 kts 78°
2026-05-04 23:20 41.23683 -8.67277 244 ft 1 kts 78°
2026-05-04 23:21 41.23685 -8.67264 244 ft 1 kts 78°
2026-05-04 23:21 41.23685 -8.67261 244 ft 0 kts 78°
2026-05-04 23:21 41.23686 -8.67260 244 ft 0 kts 78°
2026-05-04 23:22 41.23686 -8.67259 244 ft 0 kts 78°